1504832400.15,40874,13.81,73564.8,-2.87,-12.39,-14.55,0,*5E
1504832401.42,40875,13.81,73562.8,-2.89,-12.21,-15.57,0,*5B
1504832402.66,40876,13.81,73564.8,-2.87,-12.21,-16.69,0,*58
1504832403.87,40877,13.81,73564.0,-2.87,-12.39,-17.87,0,*51
1504832405.08,40878,13.81,73564.3,-2.87,-12.97,-19.03,0,*58
1504832406.35,40879,13.81,73564.8,-2.89,-13.83,-20.63,0,*5F
1504832407.59,40880,13.81,73566.0,-2.87,-14.83,-21.77,0,*54
1504832408.82,40881,13.81,73566.3,-2.87,-15.57,-22.37,0,*5A
1504832410.05,40882,13.81,73560.0,-2.87,-16.31,-22.83,0,*55
1504832411.31,40883,13.81,73564.3,-2.89,-16.89,-23.19,0,*5B
1504832412.54,40884,13.81,73564.5,-2.87,-17.49,-23.85,0,*5A
1504832413.75,40885,13.81,73562.0,-2.87,-18.11,-24.61,0,*54
1504832415.01,40886,13.81,73562.5,-2.89,-18.83,-25.29,0,*5F
1504832416.28,40887,13.81,73562.5,-2.89,-19.57,-25.65,0,*5E
1504832417.54,40888,13.81,73558.8,-2.89,-20.83,-25.91,0,*59
1504832418.79,40889,13.81,73562.8,-2.89,-21.57,-25.35,0,*5E
1504832420.0,40890,13.81,73560.8,-2.87,-21.77,-24.35,0,*5B
1504832421.28,40891,13.81,73564.0,-2.89,-21.33,-23.69,0,*5A
1504832422.51,40892,13.81,73562.8,-2.89,-20.39,-22.87,0,*53
1504832423.77,40893,13.81,73556.3,-2.89,-21.03,-23.09,0,*5D
1504832425.01,40894,13.81,73558.5,-2.89,-21.93,-22.93,0,*51
1504832426.23,40895,13.81,73560.8,-2.89,-22.07,-22.27,0,*51
1504832427.49,40896,13.81,73560.8,-2.89,-21.73,-21.97,0,*5A
1504832428.72,40897,13.81,73566.5,-2.89,-21.63,-21.77,0,*54
1504832429.94,40898,13.81,73564.3,-2.91,-21.77,-21.39,0,*5D
1504832431.2,40899,13.81,73562.8,-2.89,-21.47,-20.53,0,*5B
1504832432.44,40900,13.81,73568.0,-2.91,-20.53,-19.37,0,*5F
1504832433.68,40901,13.81,73566.0,-2.91,-19.37,-18.55,0,*53
1504832434.94,40902,13.81,73566.3,-2.91,-18.55,-18.01,0,*54
1504832436.2,40903,13.81,73562.8,-2.89,-18.11,-17.97,0,*5C
1504832437.43,40904,13.81,73562.5,-2.89,-17.87,-18.07,0,*5D
1504832438.66,40905,13.81,73558.5,-2.91,-18.11,-18.89,0,*53
1504832439.9,40906,13.81,73562.0,-2.91,-18.55,-19.51,0,*54
1504832441.11,40907,13.81,73564.0,-2.91,-19.03,-20.29,0,*52
1504832442.35,40908,13.81,73562.0,-2.95,-19.37,-21.03,0,*57
1504832443.56,40909,13.81,73560.3,-2.91,-19.95,-21.63,0,*5C
1504832444.8,40910,13.81,73562.5,-2.95,-20.53,-21.77,0,*55
1504832446.06,40911,13.81,73560.8,-2.91,-20.83,-21.67,0,*5C
1504832447.3,40912,13.81,73562.0,-2.95,-21.39,-21.87,0,*55
1504832448.54,40913,13.81,73556.5,-2.95,-21.67,-22.03,0,*50
1504832449.78,40914,13.81,73560.5,-2.95,-21.87,-22.27,0,*5F
1504832450.98,40915,13.81,73562.5,-2.95,-22.27,-22.11,0,*52
1504832452.22,40916,13.81,73556.8,-2.95,-22.41,-21.87,0,*5D
1504832453.46,40917,13.81,73560.0,-2.95,-22.57,-21.83,0,*5F
1504832454.69,40918,13.81,73558.5,-2.91,-22.63,-21.53,0,*5E
1504832455.93,40919,13.81,73560.0,-2.91,-22.73,-21.63,0,*5D
1504832457.14,40920,13.81,73560.0,-2.95,-22.57,-21.63,0,*55
1504832458.38,40921,13.81,73560.8,-2.95,-22.57,-21.83,0,*5A
1504832459.65,40922,13.81,73564.8,-2.95,-22.47,-22.17,0,*56
1504832460.88,40923,13.81,73562.8,-2.95,-22.31,-22.57,0,*52
1504832462.14,40924,13.81,73560.8,-2.95,-22.17,-22.73,0,*57
1504832463.38,40925,13.81,73562.0,-2.91,-21.97,-22.93,0,*57
1504832464.63,40926,13.81,73562.8,-2.95,-21.97,-23.29,0,*50
1504832465.87,40927,13.81,73564.0,-2.95,-21.77,-23.85,0,*59
1504832467.1,40928,13.81,73564.0,-2.95,-21.83,-24.51,0,*53
1504832468.36,40929,13.81,73564.3,-2.97,-22.31,-25.87,0,*50
1504832469.62,40930,13.81,73564.5,-2.97,-23.03,-27.71,0,*53
1504832470.85,40931,13.81,73566.0,-2.95,-23.53,-29.23,0,*5C
1504832472.08,40932,13.81,73564.3,-2.95,-24.93,-31.11,0,*5C
1504832473.31,40933,13.81,73568.0,-2.97,-26.87,-32.69,0,*54
1504832474.57,40934,13.81,73568.3,-2.97,-28.47,-33.67,0,*5E
1504832475.79,40935,13.81,73566.3,-2.97,-30.11,-33.95,0,*58
1504832477.02,40936,13.81,73566.8,-2.97,-31.33,-34.13,0,*53
1504832478.28,40937,13.81,73566.3,-2.97,-31.95,-33.95,0,*57
1504832479.48,40938,13.81,73570.8,-2.99,-32.23,-33.95,0,*58
1504832480.74,40939,13.81,73568.5,-2.97,-32.63,-34.59,0,*54
1504832481.97,40940,13.81,73570.5,-2.99,-33.37,-35.23,0,*58
1504832483.18,40941,13.81,73568.0,-2.99,-34.25,-35.71,0,*5A
1504832484.43,40942,13.81,73566.5,-2.99,-34.65,-35.77,0,*5B
1504832485.69,40943,13.81,73566.8,-2.99,-34.83,-35.53,0,*54
1504832486.95,40944,13.81,73566.5,-2.99,-35.07,-35.41,0,*5D
1504832488.18,40945,13.81,73564.8,-2.99,-35.17,-35.35,0,*5E
1504832489.45,40946,13.81,73566.5,-3.01,-35.23,-35.13,0,*5E
1504832490.68,40947,13.81,73564.8,-3.03,-35.13,-34.65,0,*5E
1504832491.96,40948,13.81,73564.8,-3.01,-35.23,-34.31,0,*51
1504832493.23,40949,13.81,73562.8,-3.03,-35.07,-33.43,0,*56
1504832494.49,40950,13.81,73566.0,-3.03,-35.07,-32.63,0,*5D
1504832495.73,40951,13.81,73566.8,-3.03,-35.01,-31.57,0,*5E
1504832496.96,40952,13.81,73566.0,-3.03,-34.89,-30.39,0,*55
1504832498.2,40953,13.81,73562.5,-3.03,-34.83,-28.85,0,*50
1504832499.47,40954,13.81,73560.5,-3.01,-34.47,-26.77,0,*5E
1504832500.68,40955,13.81,73560.3,-3.03,-33.95,-24.97,0,*59
1504832501.9,40956,13.81,73558.5,-3.03,-33.21,-23.09,0,*55
1504832503.16,40957,13.81,73558.5,-3.03,-31.85,-21.03,0,*50
1504832504.45,40958,13.81,73558.3,-3.01,-29.89,-19.41,0,*55
1504832505.68,40959,13.81,73556.3,-3.03,-27.83,-18.41,0,*53
1504832506.94,40960,13.81,73556.0,-3.03,-25.97,-18.01,0,*5A
1504832508.18,40961,13.81,73552.8,-3.03,-24.47,-17.63,0,*5C
1504832509.41,40962,13.81,73552.0,-3.03,-23.23,-17.31,0,*5D
1504832510.62,40963,13.81,73552.3,-3.03,-22.41,-16.97,0,*54
1504832511.83,40964,13.81,73548.5,-3.03,-21.93,-16.55,0,*51
1504832513.04,40965,13.81,73550.3,-3.03,-21.73,-15.99,0,*5D
1504832514.26,40966,13.81,73550.3,-3.03,-21.47,-15.29,0,*52
1504832515.52,40967,13.81,73550.3,-3.01,-21.27,-14.29,0,*56
1504832516.76,40968,13.81,73550.3,-3.01,-20.39,-12.97,0,*54
1504832518.02,40969,13.81,73548.5,-3.03,-19.31,-11.81,0,*51
1504832519.26,40970,13.81,73548.0,-3.03,-18.35,-10.89,0,*55
1504832520.5,40971,13.81,73548.0,-3.03,-17.03,-10.19,0,*57
1504832521.76,40972,13.81,73548.0,-3.01,-15.39,-9.89,0,*6C
1504832523.01,40973,13.81,73550.0,-3.01,-14.19,-10.19,0,*5F
1504832524.27,40974,13.81,73548.0,-3.01,-13.33,-11.15,0,*5A
1504832525.56,40975,13.81,73548.8,-3.01,-12.79,-12.35,0,*55
1504832526.78,40976,13.81,73548.8,-3.01,-13.07,-13.93,0,*53
1504832528.05,40977,13.81,73550.0,-3.01,-14.11,-14.83,0,*54
1504832529.29,40978,13.81,73550.5,-3.01,-15.07,-15.11,0,*57
1504832530.52,40979,13.81,73544.8,-3.03,-15.67,-14.93,0,*59
1504832531.78,40980,13.81,73544.8,-3.01,-15.95,-14.05,0,*5F
1504832533.04,40981,13.81,73546.8,-3.01,-15.57,-13.23,0,*53
1504832534.27,40982,13.81,73542.0,-3.01,-15.67,-13.43,0,*55
1504832535.5,40983,13.81,73544.8,-3.01,-15.25,-13.69,0,*5A
1504832536.75,40984,13.81,73540.3,-2.99,-14.93,-14.01,0,*58
1504832537.96,40985,13.81,73546.5,-2.99,-14.61,-14.15,0,*51
1504832539.19,40986,13.81,73542.8,-3.01,-15.07,-14.69,0,*58
1504832540.45,40987,13.81,73544.0,-3.01,-15.71,-14.79,0,*59
1504832541.72,40988,13.81,73544.8,-3.01,-16.09,-14.19,0,*5C
1504832542.98,40989,13.81,73542.0,-2.99,-16.09,-13.37,0,*56
1504832544.24,40990,13.81,73544.3,-2.99,-16.23,-12.75,0,*51
1504832545.47,40991,13.81,73544.8,-2.99,-16.03,-12.15,0,*54
1504832546.71,40992,13.81,73540.0,-2.99,-15.75,-11.55,0,*52
1504832547.95,40993,13.81,73544.8,-2.99,-15.49,-10.79,0,*53
1504832549.16,40994,13.81,73540.8,-2.99,-15.15,-10.15,0,*57
1504832550.36,40995,13.81,73542.8,-2.99,-14.61,-9.31,0,*6A
1504832551.59,40996,13.81,73544.3,-2.99,-13.79,-8.45,0,*65
1504832552.85,40997,13.81,73544.0,-2.99,-12.07,-7.43,0,*65
1504832554.07,40998,13.81,73542.8,-2.99,-10.85,-6.63,0,*61
1504832555.27,40999,13.81,73540.8,-2.99,-10.49,-6.05,0,*60
1504832556.53,41000,13.81,73544.8,-2.99,-10.41,-5.81,0,*6F
1504832557.78,41001,13.81,73542.5,-2.97,-9.67,-5.61,0,*52
1504832558.98,41002,13.81,73542.8,-2.99,-8.71,-5.39,0,*54
1504832560.26,41003,13.81,73544.0,-2.97,-7.99,-5.31,0,*5A
1504832561.52,41004,13.81,73546.3,-2.97,-7.39,-5.15,0,*51
1504832562.78,41005,13.81,73544.8,-2.97,-6.77,-5.15,0,*5B
1504832564.03,41006,13.81,73546.8,-2.97,-6.35,-5.15,0,*5E
1504832565.31,41007,13.81,73546.8,-2.97,-5.93,-5.07,0,*53
1504832566.59,41008,13.75,73546.8,-2.97,-5.61,-5.19,0,*5E
1504832567.84,41009,13.81,73546.5,-2.97,-5.39,-5.27,0,*5F
1504832569.12,41010,13.81,73550.5,-2.97,-5.15,-5.27,0,*59
1504832570.37,41011,13.81,73548.5,-2.97,-5.03,-5.43,0,*5D
1504832571.64,41012,13.81,73550.0,-2.97,-4.89,-5.61,0,*5D
1504832572.89,41013,13.81,73550.3,-2.95,-4.89,-5.89,0,*58
1504832574.11,41014,13.81,73552.8,-2.91,-4.85,-6.01,0,*54
1504832575.33,41015,13.81,73552.3,-2.91,-4.89,-6.35,0,*5E
1504832576.56,41016,13.81,73554.5,-2.91,-5.03,-6.69,0,*57
1504832577.8,41017,13.81,73552.3,-2.95,-5.11,-6.93,0,*54
1504832579.03,41018,13.81,73552.8,-2.91,-5.27,-7.15,0,*55
1504832580.26,41019,13.81,73554.0,-2.91,-5.39,-7.39,0,*55
1504832581.49,41020,13.81,73556.3,-2.91,-5.55,-7.65,0,*5C
1504832582.74,41021,13.81,73558.0,-2.91,-5.77,-7.73,0,*5A
1504832583.97,41022,13.81,73556.3,-2.91,-6.01,-7.91,0,*57
1504832585.19,41023,13.81,73556.3,-2.91,-6.27,-7.87,0,*55
1504832586.42,41024,13.81,73552.8,-2.91,-6.55,-7.73,0,*5C
1504832587.62,41025,13.81,73558.0,-2.91,-6.59,-7.49,0,*58
1504832588.86,41026,13.81,73552.3,-2.89,-6.55,-7.05,0,*56
1504832590.09,41027,13.81,73558.0,-2.89,-6.31,-6.55,0,*51
1504832591.31,41028,13.81,73556.5,-2.89,-6.01,-6.13,0,*5F
1504832592.55,41029,13.75,73554.8,-2.89,-5.89,-6.09,0,*56
1504832593.81,41030,13.81,73558.3,-2.89,-5.89,-6.31,0,*55
1504832595.02,41031,13.81,73556.5,-2.89,-5.97,-6.39,0,*53
1504832596.24,41032,13.75,73554.5,-2.89,-5.97,-6.39,0,*50
1504832597.45,41033,13.81,73558.5,-2.87,-5.97,-6.43,0,*52
1504832598.67,41034,13.81,73560.0,-2.89,-6.01,-6.55,0,*50
1504832599.89,41035,13.81,73560.0,-2.87,-6.23,-6.69,0,*50
1504832601.11,41036,13.81,73556.3,-2.89,-6.31,-6.77,0,*51
1504832602.31,41037,13.81,73558.5,-2.87,-6.39,-6.81,0,*5F
1504832603.54,41038,13.81,73556.5,-2.87,-6.55,-7.01,0,*53
1504832604.78,41039,13.81,73556.3,-2.87,-6.63,-7.01,0,*57
1504832606.02,41040,13.81,73560.5,-2.87,-6.63,-7.01,0,*59
1504832607.23,41041,13.81,73556.8,-2.87,-6.51,-7.11,0,*58
1504832608.43,41042,13.75,73558.3,-2.87,-6.55,-7.23,0,*5E
1504832609.64,41043,13.81,73560.3,-2.87,-6.77,-7.23,0,*5F
1504832610.89,41044,13.75,73556.0,-2.85,-6.73,-7.31,0,*5D
1504832612.14,41045,13.81,73562.3,-2.85,-6.73,-7.43,0,*59
1504832613.36,41046,13.81,73560.0,-2.83,-6.77,-7.69,0,*50
1504832614.61,41047,13.81,73562.0,-2.87,-7.05,-8.11,0,*51
1504832615.83,41048,13.81,73560.0,-2.87,-7.43,-8.41,0,*59
1504832617.02,41049,13.81,73560.5,-2.87,-7.83,-8.67,0,*50
1504832618.26,41050,13.81,73562.0,-2.85,-7.99,-8.75,0,*52
1504832619.51,41051,13.81,73562.8,-2.85,-8.11,-8.75,0,*5C
1504832620.75,41052,13.81,73560.0,-2.85,-8.21,-8.81,0,*57
1504832621.98,41053,13.81,73560.3,-2.85,-8.21,-8.93,0,*55
1504832623.2,41054,13.81,73562.3,-2.85,-8.21,-9.19,0,*51
1504832624.42,41055,13.81,73560.3,-2.85,-8.21,-9.19,0,*50
1504832625.67,41056,13.81,73558.5,-2.85,-8.25,-9.53,0,*59
1504832626.91,41057,13.81,73558.8,-2.85,-8.25,-10.01,0,*67
1504832628.14,41058,13.75,73556.0,-2.85,-8.63,-10.53,0,*6D
1504832629.38,41059,13.75,73556.5,-2.85,-8.89,-10.93,0,*64
1504832630.6,41060,13.81,73558.3,-2.83,-9.31,-11.33,0,*61
1504832631.86,41061,13.81,73558.8,-2.85,-9.75,-11.67,0,*67
1504832633.12,41062,13.81,73558.0,-2.85,-10.01,-11.89,0,*5F
1504832634.35,41063,13.81,73560.5,-2.85,-10.49,-12.25,0,*57
1504832635.59,41064,13.81,73562.5,-2.83,-10.97,-12.61,0,*55
1504832636.84,41065,13.81,73562.3,-2.85,-11.55,-13.15,0,*5F
1504832638.1,41066,13.81,73560.3,-2.85,-12.15,-13.51,0,*5B
1504832639.38,41067,13.81,73560.8,-2.85,-12.79,-13.79,0,*5A
1504832640.63,41068,13.81,73566.3,-2.85,-13.33,-13.93,0,*5E
1504832641.9,41069,13.81,73566.5,-2.85,-14.23,-14.05,0,*51
1504832643.16,41070,13.75,73558.3,-2.85,-15.53,-14.05,0,*5F
1504832644.42,41071,13.81,73562.8,-2.85,-16.69,-13.47,0,*55
1504832645.68,41072,13.81,73560.3,-2.85,-17.45,-12.47,0,*58
1504832646.97,41073,13.81,73560.5,-2.85,-17.59,-11.55,0,*54
1504832648.23,41074,13.81,73560.5,-2.85,-17.41,-10.57,0,*59
1504832649.49,41075,13.81,73560.3,-2.85,-16.97,-9.83,0,*63
1504832650.74,41076,13.81,73560.0,-2.85,-16.37,-9.15,0,*65
1504832651.97,41077,13.81,73558.0,-2.85,-15.49,-8.71,0,*6D
1504832653.23,41078,13.81,73556.8,-2.85,-14.51,-8.37,0,*68
1504832654.46,41079,13.81,73560.0,-2.85,-13.23,-8.33,0,*6F
1504832655.7,41080,13.75,73554.5,-2.85,-12.21,-8.37,0,*6E
1504832656.95,41081,13.81,73556.8,-2.85,-11.11,-8.51,0,*6F
1504832658.18,41082,13.81,73554.0,-2.85,-10.27,-8.75,0,*6E
1504832659.42,41083,13.81,73558.8,-2.85,-9.53,-9.19,0,*5F
1504832660.68,41084,13.81,73554.3,-2.85,-8.89,-9.45,0,*57
1504832661.91,41085,13.81,73556.3,-2.85,-8.59,-10.01,0,*63
1504832663.12,41086,13.81,73552.3,-2.87,-8.55,-10.31,0,*6D
1504832664.39,41087,13.81,73554.8,-2.85,-8.37,-10.67,0,*69
1504832665.62,41088,13.81,73558.3,-2.85,-8.37,-10.93,0,*6D
1504832666.88,41089,13.81,73552.5,-2.85,-8.45,-11.07,0,*65
1504832668.14,41090,13.81,73556.5,-2.85,-8.45,-11.07,0,*6D
1504832669.38,41091,13.75,73554.5,-2.85,-8.63,-10.97,0,*60
1504832670.58,41092,13.81,73556.5,-2.87,-8.75,-10.85,0,*65
1504832671.81,41093,13.81,73556.5,-2.87,-8.75,-10.75,0,*6B
1504832673.03,41094,13.81,73556.8,-2.87,-8.81,-10.85,0,*68
1504832674.25,41095,13.81,73556.8,-2.87,-8.85,-11.11,0,*61
1504832675.48,41096,13.81,73556.8,-2.87,-9.05,-11.37,0,*6F
1504832676.68,41097,13.81,73558.0,-2.87,-9.31,-11.45,0,*6C
1504832677.97,41098,13.81,73558.8,-2.85,-9.41,-11.63,0,*62
1504832679.22,41099,13.81,73556.5,-2.85,-9.31,-11.77,0,*61
1504832680.48,41100,13.81,73556.5,-2.85,-9.31,-12.15,0,*67
1504832681.74,41101,13.81,73560.3,-2.85,-9.15,-13.07,0,*62
1504832683.0,41102,13.75,73556.5,-2.85,-9.75,-14.79,0,*69
1504832684.23,41103,13.81,73558.8,-2.85,-10.97,-16.97,0,*5E
1504832685.49,41104,13.81,73558.8,-2.85,-12.53,-18.99,0,*53
1504832686.78,41105,13.81,73552.8,-2.85,-14.51,-19.81,0,*5E
1504832688.06,41106,13.81,73556.3,-2.85,-15.81,-19.81,0,*51
1504832689.27,41107,13.75,73550.8,-2.87,-16.83,-19.75,0,*58
1504832690.56,41108,13.81,73552.0,-2.85,-17.55,-19.81,0,*54
1504832691.77,41109,13.81,73552.3,-2.87,-18.41,-20.05,0,*5B
1504832692.99,41110,13.81,73554.0,-2.87,-19.13,-19.95,0,*56
1504832694.22,41111,13.81,73550.3,-2.89,-19.47,-19.71,0,*52
1504832695.46,41112,13.81,73548.3,-2.87,-19.71,-19.27,0,*59
1504832696.72,41113,13.75,73548.0,-2.89,-19.27,-18.83,0,*5A
1504832697.95,41114,13.75,73550.0,-2.87,-18.55,-18.99,0,*5C
1504832699.23,41115,13.81,73548.8,-2.89,-18.55,-19.85,0,*5F
1504832700.46,41116,13.75,73546.8,-2.87,-18.89,-20.69,0,*5B
1504832701.75,41117,13.81,73550.8,-2.89,-19.31,-21.97,0,*56
1504832703.03,41118,13.75,73546.8,-2.89,-20.49,-23.23,0,*51
1504832704.26,41119,13.75,73546.8,-2.89,-22.67,-24.51,0,*5C
1504832705.49,41120,13.75,73546.0,-2.89,-25.35,-24.61,0,*55
1504832706.78,41121,13.75,73544.3,-2.89,-27.61,-23.53,0,*51
1504832708.0,41122,13.75,73540.5,-2.87,-28.47,-21.73,0,*57
1504832709.26,41123,13.81,73540.8,-2.89,-27.67,-19.85,0,*57
1504832710.55,41124,13.81,73544.3,-2.89,-26.29,-17.45,0,*59
1504832711.78,41125,13.75,73542.8,-2.89,-23.39,-15.29,0,*54
1504832713.01,41126,13.81,73542.3,-2.91,-19.81,-14.33,0,*5E
1504832714.24,41127,13.75,73538.5,-2.91,-17.21,-14.33,0,*5B
1504832715.5,41128,13.75,73534.8,-2.91,-16.17,-13.87,0,*58
1504832716.73,41129,13.75,73540.3,-2.91,-16.31,-14.19,0,*5D
1504832717.94,41130,13.75,73544.3,-2.91,-16.37,-13.43,0,*5B
1504832719.18,41131,13.81,73546.5,-2.91,-16.37,-12.61,0,*5B
1504832720.44,41132,13.81,73538.0,-2.89,-15.71,-11.67,0,*55
1504832721.7,41133,13.75,73538.5,-2.89,-14.79,-10.97,0,*53
1504832722.92,41134,13.81,73538.8,-2.91,-13.73,-10.31,0,*5C
1504832724.15,41135,13.81,73542.3,-2.91,-12.75,-9.93,0,*6A
1504832725.38,41136,13.75,73542.3,-2.91,-12.03,-9.37,0,*66
1504832726.62,41137,13.75,73544.5,-2.91,-11.29,-8.85,0,*64
1504832727.86,41138,13.81,73544.5,-2.91,-10.67,-8.29,0,*66
1504832729.1,41139,13.81,73546.5,-2.91,-9.83,-7.95,0,*5D
1504832730.38,41140,13.75,73544.0,-2.89,-9.11,-7.61,0,*5A
1504832731.63,41141,13.75,73544.3,-2.89,-8.41,-7.35,0,*5E
1504832732.86,41142,13.75,73548.0,-2.87,-7.99,-7.11,0,*5F
1504832734.13,41143,13.81,73548.0,-2.89,-7.69,-6.93,0,*54
1504832735.4,41144,13.75,73550.5,-2.89,-7.35,-6.93,0,*5A
1504832736.65,41145,13.81,73550.0,-2.89,-7.19,-6.93,0,*55
1504832737.9,41146,13.81,73544.3,-2.89,-6.93,-6.89,0,*5E
1504832739.14,41147,13.75,73546.5,-2.89,-6.77,-7.01,0,*54
1504832740.34,41148,13.75,73540.8,-2.87,-6.69,-7.11,0,*5B
1504832741.56,41149,13.75,73540.8,-2.87,-6.69,-7.31,0,*58
1504832742.76,41150,13.81,73546.0,-2.87,-6.69,-7.49,0,*5F
1504832744.01,41151,13.81,73548.0,-2.89,-6.77,-7.61,0,*55
1504832745.25,41152,13.75,73542.3,-2.89,-6.69,-7.99,0,*5E
1504832746.47,41153,13.75,73540.8,-2.89,-6.77,-8.25,0,*58
1504832747.69,41154,13.81,73546.0,-2.89,-6.81,-8.55,0,*51
1504832748.92,41155,13.75,73548.5,-2.87,-6.93,-8.97,0,*53
1504832750.17,41156,13.81,73552.5,-2.87,-7.43,-9.37,0,*57
1504832751.42,41157,13.75,73550.8,-2.87,-7.57,-9.45,0,*56
1504832752.67,41158,13.75,73552.5,-2.87,-7.57,-9.57,0,*5A
1504832753.89,41159,13.81,73552.3,-2.87,-7.57,-9.31,0,*5B
1504832755.12,41160,13.75,73552.5,-2.87,-7.57,-9.19,0,*5B
1504832756.35,41161,13.75,73550.3,-2.87,-7.61,-9.05,0,*52
1504832757.6,41162,13.81,73554.5,-2.89,-7.73,-8.93,0,*52
1504832758.82,41163,13.75,73550.3,-2.87,-7.99,-8.93,0,*59
1504832760.01,41164,13.75,73550.5,-2.87,-8.25,-8.75,0,*5E
1504832761.21,41165,13.81,73552.3,-2.87,-8.41,-8.75,0,*5D
1504832762.46,41166,13.75,73548.5,-2.85,-8.63,-8.51,0,*5A
1504832763.68,41167,13.75,73548.0,-2.85,-8.59,-8.21,0,*55
1504832764.93,41168,13.75,73550.8,-2.85,-8.37,-7.95,0,*52
1504832766.18,41169,13.75,73550.3,-2.85,-8.25,-7.99,0,*5C
1504832767.38,41170,13.75,73550.3,-2.83,-8.25,-8.21,0,*5E
1504832768.63,41171,13.75,73550.0,-2.85,-8.51,-8.21,0,*5A
1504832769.82,41172,13.75,73550.5,-2.83,-8.63,-8.33,0,*5D
1504832771.07,41173,13.81,73552.0,-2.85,-8.75,-8.51,0,*59
1504832772.32,41174,13.75,73548.3,-2.85,-9.53,-9.01,0,*5F
1504832773.54,41175,13.75,73552.3,-2.83,-10.53,-9.41,0,*64
1504832774.79,41176,13.75,73550.0,-2.85,-11.55,-9.89,0,*62
1504832776.05,41177,13.81,73554.5,-2.85,-12.47,-9.61,0,*65
1504832777.29,41178,13.75,73548.5,-2.85,-12.21,-9.01,0,*6C
1504832778.51,41179,13.81,73550.5,-2.83,-11.51,-8.59,0,*63
1504832779.71,41180,13.75,73550.5,-2.83,-11.23,-8.37,0,*68
1504832780.97,41181,13.81,73552.3,-2.85,-10.85,-8.07,0,*61
1504832782.23,41182,13.75,73550.0,-2.85,-10.35,-7.69,0,*6E
1504832783.47,41183,13.75,73546.0,-2.83,-9.83,-7.65,0,*50
1504832784.71,41184,13.81,73550.8,-2.83,-9.53,-7.65,0,*5A
1504832785.94,41185,13.75,73552.5,-2.83,-9.01,-7.65,0,*5C
1504832787.13,41186,13.75,73550.5,-2.83,-8.59,-7.53,0,*56
1504832788.31,41187,13.75,73548.5,-2.83,-8.33,-7.53,0,*5B
1504832789.54,41188,13.75,73550.3,-2.83,-8.21,-7.43,0,*56
1504832790.75,41189,13.75,73552.5,-2.83,-8.25,-7.39,0,*5E
1504832791.95,41190,13.75,73550.5,-2.83,-8.33,-7.19,0,*53
1504832793.19,41191,13.75,73554.8,-2.81,-8.29,-6.97,0,*5C
1504832794.43,41192,13.75,73552.0,-2.81,-8.03,-6.81,0,*50
1504832795.63,41193,13.75,73554.3,-2.83,-7.87,-6.77,0,*59
1504832796.84,41194,13.75,73552.3,-2.81,-7.53,-6.59,0,*59
1504832798.08,41195,13.75,73554.8,-2.81,-7.27,-6.69,0,*58
1504832799.3,41196,13.75,73556.3,-2.79,-6.97,-6.69,0,*56
1504832800.53,41197,13.75,73552.0,-2.81,-6.81,-6.81,0,*51
1504832801.74,41198,13.75,73550.8,-2.79,-6.51,-6.81,0,*54
1504832802.98,41199,13.75,73552.3,-2.81,-6.35,-7.01,0,*59
1504832804.23,41200,13.75,73546.5,-2.79,-6.19,-6.97,0,*5D
1504832805.48,41201,13.75,73550.3,-2.81,-6.23,-7.15,0,*59
1504832806.72,41202,13.75,73550.0,-2.81,-6.31,-7.27,0,*58
1504832807.97,41203,13.75,73548.5,-2.81,-6.43,-7.39,0,*53
1504832809.17,41204,13.75,73548.0,-2.79,-6.51,-7.49,0,*57
1504832810.42,41205,13.75,73548.5,-2.79,-6.63,-7.61,0,*5D
1504832811.66,41206,13.75,73550.0,-2.81,-6.69,-7.65,0,*57
1504832812.9,41207,13.75,73550.5,-2.81,-6.69,-7.61,0,*52
1504832814.14,41208,13.75,73554.5,-2.81,-6.69,-7.73,0,*5E
1504832815.38,41209,13.75,73554.8,-2.81,-6.69,-7.65,0,*58
1504832816.62,41210,13.75,73554.5,-2.81,-6.69,-7.65,0,*50
1504832817.85,41211,13.75,73552.0,-2.79,-6.55,-7.61,0,*5D
1504832819.09,41212,13.75,73548.3,-2.81,-6.69,-7.77,0,*51
1504832820.33,41213,13.75,73552.0,-2.81,-6.85,-7.91,0,*5A
1504832821.6,41214,13.75,73548.8,-2.81,-6.97,-7.95,0,*5A
1504832822.85,41215,13.75,73548.0,-2.79,-6.97,-7.91,0,*58
1504832824.1,41216,13.75,73548.5,-2.79,-6.93,-7.77,0,*57
1504832825.37,41217,13.75,73554.0,-2.81,-6.93,-7.77,0,*51
1504832826.59,41218,13.75,73554.8,-2.79,-6.89,-7.91,0,*5A
1504832827.81,41219,13.75,73548.0,-2.79,-6.89,-8.03,0,*5F
1504832829.01,41220,13.75,73554.3,-2.79,-6.89,-8.29,0,*5D
1504832830.2,41221,13.75,73552.3,-2.79,-6.89,-8.67,0,*56
1504832831.45,41222,13.75,73552.3,-2.79,-6.93,-9.11,0,*5E
1504832832.65,41223,13.75,73550.5,-2.79,-7.11,-9.67,0,*55
1504832833.89,41224,13.75,73552.5,-2.77,-7.19,-10.45,0,*6C
1504832835.14,41225,13.75,73552.8,-2.77,-7.43,-11.41,0,*67
1504832836.39,41226,13.75,73552.3,-2.77,-7.69,-12.43,0,*6D
1504832837.64,41227,13.75,73556.0,-2.77,-8.11,-13.43,0,*6D
1504832838.85,41228,13.81,73560.3,-2.79,-8.71,-14.37,0,*6E
1504832840.1,41229,13.75,73556.0,-2.77,-9.67,-15.43,0,*65
1504832841.37,41230,13.75,73558.3,-2.79,-10.75,-16.17,0,*5A
1504832842.6,41231,13.75,73554.8,-2.79,-11.81,-16.75,0,*55
1504832843.81,41232,13.75,73558.8,-2.79,-12.93,-16.89,0,*55
1504832845.04,41233,13.75,73556.0,-2.79,-13.79,-16.89,0,*51
1504832846.28,41234,13.75,73556.8,-2.79,-14.43,-16.59,0,*55
1504832847.55,41235,13.75,73552.3,-2.81,-15.01,-16.51,0,*5C
1504832848.76,41236,13.75,73554.8,-2.79,-15.67,-15.99,0,*5F
1504832849.99,41237,13.75,73554.3,-2.81,-15.75,-15.15,0,*5E
1504832851.22,41238,13.75,73554.5,-2.79,-15.39,-14.29,0,*50
1504832852.46,41239,13.75,73554.8,-2.79,-14.83,-13.51,0,*59
1504832853.72,41240,13.75,73550.0,-2.79,-13.79,-12.79,0,*5E
1504832854.95,41241,13.75,73552.0,-2.79,-12.65,-12.43,0,*5A
1504832856.19,41242,13.75,73554.0,-2.79,-11.85,-12.39,0,*59
1504832857.45,41243,13.75,73554.0,-2.79,-11.55,-12.57,0,*5D
1504832858.66,41244,13.75,73550.5,-2.79,-11.41,-13.07,0,*5B
1504832859.9,41245,13.75,73550.0,-2.79,-11.45,-13.37,0,*5D
1504832861.12,41246,13.75,73548.3,-2.79,-11.81,-13.43,0,*55
1504832862.35,41247,13.75,73546.3,-2.79,-12.15,-13.43,0,*5A
1504832863.61,41248,13.75,73548.3,-2.81,-12.29,-13.33,0,*5A
1504832864.82,41249,13.75,73550.0,-2.79,-12.25,-13.15,0,*54
1504832866.05,41250,13.75,73552.8,-2.79,-12.11,-12.97,0,*50
1504832867.28,41251,13.75,73552.8,-2.79,-11.85,-13.15,0,*54
1504832868.56,41252,13.75,73552.0,-2.81,-11.77,-13.61,0,*5E
1504832869.79,41253,13.75,73550.3,-2.79,-11.85,-14.11,0,*55
1504832871.0,41254,13.75,73548.5,-2.79,-12.29,-14.23,0,*56
1504832872.24,41255,13.75,73546.8,-2.79,-12.79,-14.37,0,*57
1504832873.45,41256,13.75,73550.8,-2.79,-13.07,-14.23,0,*59
1504832874.67,41257,13.75,73548.8,-2.79,-13.23,-13.79,0,*56
1504832875.9,41258,13.75,73550.5,-2.79,-13.33,-13.43,0,*51
1504832877.13,41259,13.75,73548.0,-2.81,-13.15,-12.89,0,*54
1504832878.36,41260,13.81,73552.5,-2.79,-12.83,-12.43,0,*51
1504832879.62,41261,13.75,73548.0,-2.79,-12.57,-12.11,0,*5E
1504832880.9,41262,13.75,73544.0,-2.81,-12.35,-11.73,0,*59
1504832882.18,41263,13.75,73546.0,-2.81,-11.97,-11.37,0,*53
1504832883.39,41264,13.75,73542.0,-2.79,-11.41,-10.97,0,*53
1504832884.68,41265,13.75,73544.5,-2.81,-10.79,-10.63,0,*54
1504832885.91,41266,13.75,73544.3,-2.81,-10.49,-10.35,0,*57
1504832887.13,41267,13.75,73544.0,-2.79,-10.15,-10.19,0,*56
1504832888.33,41268,13.75,73542.3,-2.79,-9.89,-10.01,0,*6D
1504832889.56,41269,13.75,73534.0,-2.79,-9.83,-10.01,0,*66
1504832890.78,41270,13.75,73534.0,-2.81,-9.97,-10.05,0,*68
1504832891.98,41271,13.75,73540.5,-2.79,-10.01,-9.93,0,*6E
1504832893.17,41272,13.75,73540.3,-2.79,-9.89,-9.79,0,*51
1504832894.37,41273,13.75,73540.5,-2.79,-9.79,-9.75,0,*53
1504832895.59,41274,13.75,73538.8,-2.79,-9.61,-9.67,0,*5E
1504832896.81,41275,13.75,73544.0,-2.79,-9.49,-9.67,0,*55
1504832898.04,41276,13.75,73546.3,-2.79,-9.37,-9.79,0,*50
1504832899.25,41277,13.75,73548.3,-2.79,-9.23,-10.19,0,*6A
1504832900.49,41278,13.75,73554.0,-2.79,-9.23,-10.63,0,*68
1504832901.72,41279,13.75,73554.8,-2.79,-9.37,-11.23,0,*69